owner,sensor,date,latitude,longitude,vertical_datum,direction_of_sea_water_velocity,sea_water_speed,upward_sea_water_velocity,qcFlag 
TABS,ioos:station:wmo:42044:1,2014-11-01T00:00:00Z,26.1914,-97.0507,2.0,106.4458344,11.47966027,-99999.0,'11111222,11111222,99999999' 
TABS,ioos:station:wmo:42044:1,2014-11-01T00:30:00Z,26.1914,-97.0507,2.0,104.8899585,16.92844057,-99999.0,'11111222,11111222,99999999' 
TABS,ioos:station:wmo:42044:1,2014-11-01T01:00:00Z,26.1914,-97.0507,2.0,117.5330468,19.05849155,-99999.0,'11111222,11111222,99999999' 
TABS,ioos:station:wmo:42044:1,2014-11-01T01:30:00Z,26.1914,-97.0507,2.0,102.8186836,17.57810001,-99999.0,'11111222,11111222,99999999' 
TABS,ioos:station:wmo:42044:1,2014-11-01T02:00:00Z,26.1914,-97.0507,2.0,92.98635715,18.2347635,-99999.0,'11111222,11111222,99999999' 
TABS,ioos:station:wmo:42044:1,2014-11-01T02:30:00Z,26.1914,-97.0507,2.0,107.3439946,17.10786077,-99999.0,'11111222,11111222,99999999' 
TABS,ioos:station:wmo:42044:1,2014-11-01T03:00:00Z,26.1914,-97.0507,2.0,103.3072977,16.20511648,-99999.0,'11111222,11111222,99999999' 
TABS,ioos:station:wmo:42044:1,2014-11-01T03:30:00Z,26.1914,-97.0507,2.0,92.78839823,16.2392272,-99999.0,'11111222,11111222,99999999' 
TABS,ioos:station:wmo:42044:1,2014-11-01T04:00:00Z,26.1914,-97.0507,2.0,99.71243356,19.20527271,-99999.0,'11111222,11111222,99999999' 
TABS,ioos:station:wmo:42044:1,2014-11-01T04:30:00Z,26.1914,-97.0507,2.0,105.9217374,16.65909061,-99999.0,'11111222,11111222,99999999' 
TABS,ioos:station:wmo:42044:1,2014-11-01T05:00:00Z,26.1914,-97.0507,2.0,104.9336097,16.56964091,-99999.0,'11111222,11111222,99999999' 
TABS,ioos:station:wmo:42044:1,2014-11-01T05:30:00Z,26.1914,-97.0507,2.0,116.0613692,17.29889014,-99999.0,'11111222,11111222,99999999' 
TABS,ioos:station:wmo:42044:1,2014-11-01T06:00:00Z,26.1914,-97.0507,2.0,100.2456327,17.31611966,-99999.0,'11111222,11111222,99999999' 
TABS,ioos:station:wmo:42044:1,2014-11-01T06:30:00Z,26.1914,-97.0507,2.0,88.86811093,15.69306216,-99999.0,'11111222,11111222,99999999' 
TABS,ioos:station:wmo:42044:1,2014-11-01T07:00:00Z,26.1914,-97.0507,2.0,94.11271531,15.05877817,-99999.0,'11111222,11111222,99999999' 
TABS,ioos:station:wmo:42044:1,2014-11-01T07:30:00Z,26.1914,-97.0507,2.0,102.9080679,16.87647475,-99999.0,'11111222,11111222,99999999' 
TABS,ioos:station:wmo:42044:1,2014-11-01T08:30:00Z,26.1914,-97.0507,2.0,85.53813445,11.82584035,-99999.0,'11111222,11111222,99999999' 
TABS,ioos:station:wmo:42044:1,2014-11-01T09:00:00Z,26.1914,-97.0507,2.0,87.13760147,18.2227358,-99999.0,'11111222,11111222,99999999' 
TABS,ioos:station:wmo:42044:1,2014-11-01T09:30:00Z,26.1914,-97.0507,2.0,95.87737886,14.35546237,-99999.0,'11111222,11111222,99999999' 
TABS,ioos:station:wmo:42044:1,2014-11-01T10:00:00Z,26.1914,-97.0507,2.0,88.46663953,15.69562041,-99999.0,'11111222,11111222,99999999' 
TABS,ioos:station:wmo:42044:1,2014-11-01T10:30:00Z,26.1914,-97.0507,2.0,81.032793,16.552308,-99999.0,'11111222,11111222,99999999' 
TABS,ioos:station:wmo:42044:1,2014-11-01T11:00:00Z,26.1914,-97.0507,2.0,102.636107,13.89658951,-99999.0,'11111222,11111222,99999999' 
TABS,ioos:station:wmo:42044:1,2014-11-01T11:30:00Z,26.1914,-97.0507,2.0,92.9908171,17.82427839,-99999.0,'11111222,11111222,99999999' 
TABS,ioos:station:wmo:42044:1,2014-11-01T12:00:00Z,26.1914,-97.0507,2.0,87.69094261,16.13309952,-99999.0,'11111222,11111222,99999999' 
TABS,ioos:station:wmo:42044:1,2014-11-01T12:30:00Z,26.1914,-97.0507,2.0,96.48594312,13.456125,-99999.0,'11111222,11111222,99999999' 
TABS,ioos:station:wmo:42044:1,2014-11-01T13:00:00Z,26.1914,-97.0507,2.0,83.77739264,12.91609848,-99999.0,'11111222,11111222,99999999' 
TABS,ioos:station:wmo:42044:1,2014-11-01T13:30:00Z,26.1914,-97.0507,2.0,97.32165997,13.73196636,-99999.0,'11111222,11111222,99999999' 
TABS,ioos:station:wmo:42044:1,2014-11-01T14:00:00Z,26.1914,-97.0507,2.0,100.7247501,13.05809328,-99999.0,'11111222,11111222,99999999' 
TABS,ioos:station:wmo:42044:1,2014-11-01T14:30:00Z,26.1914,-97.0507,2.0,102.1584953,14.43376943,-99999.0,'11111222,11111222,99999999' 
TABS,ioos:station:wmo:42044:1,2014-11-01T15:00:00Z,26.1914,-97.0507,2.0,98.38866928,13.16080545,-99999.0,'11111222,11111222,99999999' 
TABS,ioos:station:wmo:42044:1,2014-11-01T15:30:00Z,26.1914,-97.0507,2.0,107.3169364,11.99363998,-99999.0,'11111222,11111222,99999999' 
TABS,ioos:station:wmo:42044:1,2014-11-01T16:00:00Z,26.1914,-97.0507,2.0,79.3110915,13.20919755,-99999.0,'11111222,11111222,99999999' 
TABS,ioos:station:wmo:42044:1,2014-11-01T16:30:00Z,26.1914,-97.0507,2.0,83.70430036,14.22579348,-99999.0,'11111222,11111222,99999999' 
TABS,ioos:station:wmo:42044:1,2014-11-01T17:00:00Z,26.1914,-97.0507,2.0,87.91202105,11.52765371,-99999.0,'11111222,11111222,99999999' 
TABS,ioos:station:wmo:42044:1,2014-11-01T17:30:00Z,26.1914,-97.0507,2.0,102.118064,10.28927597,-99999.0,'11111222,11111222,99999999' 
TABS,ioos:station:wmo:42044:1,2014-11-01T18:00:00Z,26.1914,-97.0507,2.0,92.23199675,8.986818124,-99999.0,'11133222,11111222,99999999' 
TABS,ioos:station:wmo:42044:1,2014-11-01T18:30:00Z,26.1914,-97.0507,2.0,97.42574014,8.743328885,-99999.0,'11133222,11111222,99999999' 
TABS,ioos:station:wmo:42044:1,2014-11-01T19:00:00Z,26.1914,-97.0507,2.0,95.84345118,8.152361621,-99999.0,'11133222,11111222,99999999' 
TABS,ioos:station:wmo:42044:1,2014-11-01T19:30:00Z,26.1914,-97.0507,2.0,97.36857543,9.044694577,-99999.0,'11133222,11111222,99999999' 
TABS,ioos:station:wmo:42044:1,2014-11-01T20:00:00Z,26.1914,-97.0507,2.0,104.5615078,11.37539889,-99999.0,'11111222,11111222,99999999' 
TABS,ioos:station:wmo:42044:1,2014-11-01T20:30:00Z,26.1914,-97.0507,2.0,100.9746609,14.07745716,-99999.0,'11111222,11111222,99999999' 
TABS,ioos:station:wmo:42044:1,2014-11-01T21:00:00Z,26.1914,-97.0507,2.0,92.77502194,13.42574393,-99999.0,'11111222,11111222,99999999' 
TABS,ioos:station:wmo:42044:1,2014-11-01T21:30:00Z,26.1914,-97.0507,2.0,99.88987159,16.30225751,-99999.0,'11111222,11111222,99999999' 
TABS,ioos:station:wmo:42044:1,2014-11-01T22:00:00Z,26.1914,-97.0507,2.0,89.60440919,17.38041426,-99999.0,'11111222,11111222,99999999' 
TABS,ioos:station:wmo:42044:1,2014-11-01T22:30:00Z,26.1914,-97.0507,2.0,86.2723185,16.76547047,-99999.0,'11111222,11111222,99999999' 
TABS,ioos:station:wmo:42044:1,2014-11-01T23:00:00Z,26.1914,-97.0507,2.0,83.13494799,15.30976486,-99999.0,'11111222,11111222,99999999' 
TABS,ioos:station:wmo:42044:1,2014-11-01T23:30:00Z,26.1914,-97.0507,2.0,86.05221337,15.10584324,-99999.0,'11111222,11111222,99999999' 
TABS,ioos:station:wmo:42044:1,2014-11-02T00:00:00Z,26.1914,-97.0507,2.0,79.59162956,16.82688622,-99999.0,'11111222,11111222,99999999' 
TABS,ioos:station:wmo:42044:1,2014-11-02T00:30:00Z,26.1914,-97.0507,2.0,90.53430545,13.94060616,-99999.0,'11111222,11111222,99999999' 
TABS,ioos:station:wmo:42044:1,2014-11-02T01:00:00Z,26.1914,-97.0507,2.0,88.66526739,15.88430987,-99999.0,'11111222,11111222,99999999' 
TABS,ioos:station:wmo:42044:1,2014-11-02T01:30:00Z,26.1914,-97.0507,2.0,96.26347597,12.37386358,-99999.0,'11111222,11111222,99999999' 
TABS,ioos:station:wmo:42044:1,2014-11-02T02:00:00Z,26.1914,-97.0507,2.0,97.98930808,13.81407977,-99999.0,'11111222,11111222,99999999' 
TABS,ioos:station:wmo:42044:1,2014-11-02T02:30:00Z,26.1914,-97.0507,2.0,91.60599923,11.77462526,-99999.0,'11111222,11111222,99999999' 
TABS,ioos:station:wmo:42044:1,2014-11-02T03:00:00Z,26.1914,-97.0507,2.0,89.56714278,14.56041552,-99999.0,'11111222,11111222,99999999' 
TABS,ioos:station:wmo:42044:1,2014-11-02T03:30:00Z,26.1914,-97.0507,2.0,76.96228178,12.9436664,-99999.0,'11111222,11111222,99999999' 
TABS,ioos:station:wmo:42044:1,2014-11-02T04:00:00Z,26.1914,-97.0507,2.0,77.62932405,14.93680354,-99999.0,'11111222,11111222,99999999' 
TABS,ioos:station:wmo:42044:1,2014-11-02T04:30:00Z,26.1914,-97.0507,2.0,82.82368313,13.84848367,-99999.0,'11111222,11111222,99999999' 
TABS,ioos:station:wmo:42044:1,2014-11-02T05:00:00Z,26.1914,-97.0507,2.0,83.87999168,13.50697968,-99999.0,'11111222,11111222,99999999' 
TABS,ioos:station:wmo:42044:1,2014-11-02T05:30:00Z,26.1914,-97.0507,2.0,73.38002131,11.08301854,-99999.0,'11111222,11111222,99999999' 
TABS,ioos:station:wmo:42044:1,2014-11-02T06:00:00Z,26.1914,-97.0507,2.0,87.34175398,14.01508116,-99999.0,'11111222,11111222,99999999' 
TABS,ioos:station:wmo:42044:1,2014-11-02T06:30:00Z,26.1914,-97.0507,2.0,83.78473779,15.70229601,-99999.0,'11111222,11111222,99999999' 
TABS,ioos:station:wmo:42044:1,2014-11-02T07:00:00Z,26.1914,-97.0507,2.0,97.20843736,13.62771074,-99999.0,'11111222,11111222,99999999' 
TABS,ioos:station:wmo:42044:1,2014-11-02T07:30:00Z,26.1914,-97.0507,2.0,94.95324589,12.04498236,-99999.0,'11111222,11111222,99999999' 
TABS,ioos:station:wmo:42044:1,2014-11-02T08:00:00Z,26.1914,-97.0507,2.0,87.29513034,12.71416533,-99999.0,'11111222,11111222,99999999' 
TABS,ioos:station:wmo:42044:1,2014-11-02T08:30:00Z,26.1914,-97.0507,2.0,98.3191772,12.85527129,-99999.0,'11111222,11111222,99999999' 
TABS,ioos:station:wmo:42044:1,2014-11-02T09:00:00Z,26.1914,-97.0507,2.0,103.0291643,9.935793879,-99999.0,'11133222,11111222,99999999' 
TABS,ioos:station:wmo:42044:1,2014-11-02T09:30:00Z,26.1914,-97.0507,2.0,81.60859283,12.40278195,-99999.0,'11111222,11111222,99999999' 
TABS,ioos:station:wmo:42044:1,2014-11-02T10:00:00Z,26.1914,-97.0507,2.0,84.28337892,9.436932764,-99999.0,'11133222,11111222,99999999' 
TABS,ioos:station:wmo:42044:1,2014-11-02T10:30:00Z,26.1914,-97.0507,2.0,96.18968967,12.61353242,-99999.0,'11111222,11111222,99999999' 
TABS,ioos:station:wmo:42044:1,2014-11-02T11:00:00Z,26.1914,-97.0507,2.0,117.6440603,13.06095326,-99999.0,'11111222,11111222,99999999' 
TABS,ioos:station:wmo:42044:1,2014-11-02T11:30:00Z,26.1914,-97.0507,2.0,104.0823703,12.04189769,-99999.0,'11111222,11111222,99999999' 
TABS,ioos:station:wmo:42044:1,2014-11-02T12:00:00Z,26.1914,-97.0507,2.0,113.2370846,11.70991033,-99999.0,'11111222,11111222,99999999' 
TABS,ioos:station:wmo:42044:1,2014-11-02T12:30:00Z,26.1914,-97.0507,2.0,118.8890857,6.72715393,-99999.0,'11133222,11111222,99999999' 
TABS,ioos:station:wmo:42044:1,2014-11-02T13:00:00Z,26.1914,-97.0507,2.0,123.6370679,9.008335029,-99999.0,'11133222,11111222,99999999' 
TABS,ioos:station:wmo:42044:1,2014-11-02T13:30:00Z,26.1914,-97.0507,2.0,110.8857526,8.134494453,-99999.0,'11133222,11111222,99999999' 
TABS,ioos:station:wmo:42044:1,2014-11-02T14:00:00Z,26.1914,-97.0507,2.0,131.008991,5.486310235,-99999.0,'11133222,11111222,99999999' 
TABS,ioos:station:wmo:42044:1,2014-11-02T14:30:00Z,26.1914,-97.0507,2.0,142.0530311,4.894864656,-99999.0,'11133222,11111222,99999999' 
TABS,ioos:station:wmo:42044:1,2014-11-02T15:00:00Z,26.1914,-97.0507,2.0,153.9482653,5.988430512,-99999.0,'11133222,11111222,99999999' 
TABS,ioos:station:wmo:42044:1,2014-11-02T15:30:00Z,26.1914,-97.0507,2.0,143.3633603,4.910040733,-99999.0,'11133222,11111222,99999999' 
TABS,ioos:station:wmo:42044:1,2014-11-02T16:00:00Z,26.1914,-97.0507,2.0,155.9543462,6.307336997,-99999.0,'11133222,11111222,99999999' 
TABS,ioos:station:wmo:42044:1,2014-11-02T16:30:00Z,26.1914,-97.0507,2.0,136.2930306,6.266562056,-99999.0,'11133222,11111222,99999999' 
TABS,ioos:station:wmo:42044:1,2014-11-02T17:00:00Z,26.1914,-97.0507,2.0,171.0496793,6.620611754,-99999.0,'11133222,11111222,99999999' 
TABS,ioos:station:wmo:42044:1,2014-11-02T17:30:00Z,26.1914,-97.0507,2.0,172.3904179,5.135221514,-99999.0,'11133222,11111222,99999999' 
TABS,ioos:station:wmo:42044:1,2014-11-02T18:00:00Z,26.1914,-97.0507,2.0,159.4437924,5.04096221,-99999.0,'11133222,11111222,99999999' 
TABS,ioos:station:wmo:42044:1,2014-11-02T18:30:00Z,26.1914,-97.0507,2.0,178.3051464,3.381478966,-99999.0,'11133222,11111222,99999999' 
TABS,ioos:station:wmo:42044:1,2014-11-02T19:00:00Z,26.1914,-97.0507,2.0,181.0567848,5.420922431,-99999.0,'11133222,11111222,99999999' 
TABS,ioos:station:wmo:42044:1,2014-11-02T19:30:00Z,26.1914,-97.0507,2.0,194.1552417,6.992317212,-99999.0,'11133222,11111222,99999999' 
TABS,ioos:station:wmo:42044:1,2014-11-02T20:00:00Z,26.1914,-97.0507,2.0,201.0597335,7.318866032,-99999.0,'11133222,11111222,99999999' 
TABS,ioos:station:wmo:42044:1,2014-11-02T20:30:00Z,26.1914,-97.0507,2.0,204.8495159,9.113824664,-99999.0,'11133222,11111222,99999999' 
TABS,ioos:station:wmo:42044:1,2014-11-02T21:00:00Z,26.1914,-97.0507,2.0,212.2539304,9.518870731,-99999.0,'11133222,11111222,99999999' 
TABS,ioos:station:wmo:42044:1,2014-11-02T21:30:00Z,26.1914,-97.0507,2.0,210.9149318,6.072767079,-99999.0,'11133222,11111222,99999999' 
TABS,ioos:station:wmo:42044:1,2014-11-02T22:00:00Z,26.1914,-97.0507,2.0,227.8909471,9.812991389,-99999.0,'11133222,11111222,99999999' 
TABS,ioos:station:wmo:42044:1,2014-11-02T22:30:00Z,26.1914,-97.0507,2.0,238.032436,6.365288682,-99999.0,'11133222,11111222,99999999' 
TABS,ioos:station:wmo:42044:1,2014-11-02T23:00:00Z,26.1914,-97.0507,2.0,242.1558817,5.01003992,-99999.0,'11133222,11111222,99999999' 
TABS,ioos:station:wmo:42044:1,2014-11-02T23:30:00Z,26.1914,-97.0507,2.0,249.1829233,5.402675263,-99999.0,'11133222,11111222,99999999' 
TABS,ioos:station:wmo:42044:1,2014-11-03T00:00:00Z,26.1914,-97.0507,2.0,232.2879595,7.078764016,-99999.0,'11133222,11111222,99999999' 
TABS,ioos:station:wmo:42044:1,2014-11-03T00:30:00Z,26.1914,-97.0507,2.0,223.9497621,8.875680256,-99999.0,'11133222,11111222,99999999' 
TABS,ioos:station:wmo:42044:1,2014-11-03T01:00:00Z,26.1914,-97.0507,2.0,238.231921,8.433415678,-99999.0,'11133222,11111222,99999999' 
TABS,ioos:station:wmo:42044:1,2014-11-03T01:30:00Z,26.1914,-97.0507,2.0,207.8080615,8.03832072,-99999.0,'11133222,11111222,99999999' 
TABS,ioos:station:wmo:42044:1,2014-11-03T02:00:00Z,26.1914,-97.0507,2.0,240.7040052,8.542534753,-99999.0,'11133222,11111222,99999999' 
TABS,ioos:station:wmo:42044:1,2014-11-03T02:30:00Z,26.1914,-97.0507,2.0,239.1031697,8.763583742,-99999.0,'11133222,11111222,99999999' 
TABS,ioos:station:wmo:42044:1,2014-11-03T03:00:00Z,26.1914,-97.0507,2.0,240.4477083,8.840005656,-99999.0,'11133222,11111222,99999999' 
TABS,ioos:station:wmo:42044:1,2014-11-03T03:30:00Z,26.1914,-97.0507,2.0,256.4860955,8.772878661,-99999.0,'11133222,11111222,99999999' 
TABS,ioos:station:wmo:42044:1,2014-11-03T04:00:00Z,26.1914,-97.0507,2.0,235.3392155,8.352209289,-99999.0,'11133222,11111222,99999999' 
TABS,ioos:station:wmo:42044:1,2014-11-03T04:30:00Z,26.1914,-97.0507,2.0,242.0919691,11.45181208,-99999.0,'11111222,11111222,99999999' 
TABS,ioos:station:wmo:42044:1,2014-11-03T05:00:00Z,26.1914,-97.0507,2.0,248.9546188,10.97183667,-99999.0,'11111222,11111222,99999999' 
TABS,ioos:station:wmo:42044:1,2014-11-03T05:30:00Z,26.1914,-97.0507,2.0,249.7977588,9.845689412,-99999.0,'11133222,11111222,99999999' 
TABS,ioos:station:wmo:42044:1,2014-11-03T06:00:00Z,26.1914,-97.0507,2.0,245.6693837,9.174856947,-99999.0,'11133222,11111222,99999999' 
TABS,ioos:station:wmo:42044:1,2014-11-03T06:30:00Z,26.1914,-97.0507,2.0,241.8913406,8.468825184,-99999.0,'11133222,11111222,99999999' 
TABS,ioos:station:wmo:42044:1,2014-11-03T07:00:00Z,26.1914,-97.0507,2.0,249.2292773,9.700438134,-99999.0,'11133222,11111222,99999999' 
TABS,ioos:station:wmo:42044:1,2014-11-03T07:30:00Z,26.1914,-97.0507,2.0,249.1166877,9.846831978,-99999.0,'11133222,11111222,99999999' 
TABS,ioos:station:wmo:42044:1,2014-11-03T08:00:00Z,26.1914,-97.0507,2.0,246.3132838,8.637650143,-99999.0,'11133222,11111222,99999999' 
TABS,ioos:station:wmo:42044:1,2014-11-03T08:30:00Z,26.1914,-97.0507,2.0,252.2598755,8.861354298,-99999.0,'11133222,11111222,99999999' 
TABS,ioos:station:wmo:42044:1,2014-11-03T09:00:00Z,26.1914,-97.0507,2.0,256.62488,13.44464577,-99999.0,'11111222,11111222,99999999' 
TABS,ioos:station:wmo:42044:1,2014-11-03T09:30:00Z,26.1914,-97.0507,2.0,263.4942855,15.71115846,-99999.0,'11111222,11111222,99999999' 
TABS,ioos:station:wmo:42044:1,2014-11-03T10:00:00Z,26.1914,-97.0507,2.0,249.6129897,15.04219399,-99999.0,'11111222,11111222,99999999' 
TABS,ioos:station:wmo:42044:1,2014-11-03T10:30:00Z,26.1914,-97.0507,2.0,253.5222692,16.570519,-99999.0,'11111222,11111222,99999999' 
TABS,ioos:station:wmo:42044:1,2014-11-03T11:00:00Z,26.1914,-97.0507,2.0,269.6269763,19.99042271,-99999.0,'11111222,11111222,99999999' 
TABS,ioos:station:wmo:42044:1,2014-11-03T11:30:00Z,26.1914,-97.0507,2.0,254.2529042,19.01356358,-99999.0,'11111222,11111222,99999999' 
TABS,ioos:station:wmo:42044:1,2014-11-03T12:00:00Z,26.1914,-97.0507,2.0,264.791632,19.16913404,-99999.0,'11111222,11111222,99999999' 
TABS,ioos:station:wmo:42044:1,2014-11-03T12:30:00Z,26.1914,-97.0507,2.0,250.6277717,18.1792024,-99999.0,'11111222,11111222,99999999' 
TABS,ioos:station:wmo:42044:1,2014-11-03T13:00:00Z,26.1914,-97.0507,2.0,259.9484684,19.99690476,-99999.0,'11111222,11111222,99999999' 
TABS,ioos:station:wmo:42044:1,2014-11-03T13:30:00Z,26.1914,-97.0507,2.0,271.1968049,20.59448955,-99999.0,'11111222,11111222,99999999' 
TABS,ioos:station:wmo:42044:1,2014-11-03T14:00:00Z,26.1914,-97.0507,2.0,258.6609822,19.58219855,-99999.0,'11111222,11111222,99999999' 
TABS,ioos:station:wmo:42044:1,2014-11-03T14:30:00Z,26.1914,-97.0507,2.0,261.9250148,26.27044347,-99999.0,'11111222,11111222,99999999' 
TABS,ioos:station:wmo:42044:1,2014-11-03T15:00:00Z,26.1914,-97.0507,2.0,266.605902,23.48117757,-99999.0,'11111222,11111222,99999999' 
TABS,ioos:station:wmo:42044:1,2014-11-03T15:30:00Z,26.1914,-97.0507,2.0,262.0505618,23.71789409,-99999.0,'11111222,11111222,99999999' 
TABS,ioos:station:wmo:42044:1,2014-11-03T16:00:00Z,26.1914,-97.0507,2.0,256.1941531,22.88099648,-99999.0,'11111222,11111222,99999999' 
TABS,ioos:station:wmo:42044:1,2014-11-03T16:30:00Z,26.1914,-97.0507,2.0,260.864656,23.30558088,-99999.0,'11111222,11111222,99999999' 
TABS,ioos:station:wmo:42044:1,2014-11-03T17:00:00Z,26.1914,-97.0507,2.0,256.04468,23.9261635,-99999.0,'11111222,11111222,99999999' 
TABS,ioos:station:wmo:42044:1,2014-11-03T17:30:00Z,26.1914,-97.0507,2.0,266.6993876,26.40378761,-99999.0,'11111222,11111222,99999999' 
TABS,ioos:station:wmo:42044:1,2014-11-03T18:00:00Z,26.1914,-97.0507,2.0,263.5837332,26.7575821,-99999.0,'11111222,11111222,99999999' 
TABS,ioos:station:wmo:42044:1,2014-11-03T18:30:00Z,26.1914,-97.0507,2.0,260.7053009,20.74230942,-99999.0,'11111222,11111222,99999999' 
TABS,ioos:station:wmo:42044:1,2014-11-03T19:00:00Z,26.1914,-97.0507,2.0,261.2433898,26.0131832,-99999.0,'11111222,11111222,99999999' 
TABS,ioos:station:wmo:42044:1,2014-11-03T19:30:00Z,26.1914,-97.0507,2.0,265.208676,24.4253393,-99999.0,'11111222,11111222,99999999' 
TABS,ioos:station:wmo:42044:1,2014-11-03T20:00:00Z,26.1914,-97.0507,2.0,262.8340223,24.53159595,-99999.0,'11111222,11111222,99999999' 
TABS,ioos:station:wmo:42044:1,2014-11-03T20:30:00Z,26.1914,-97.0507,2.0,270.4749082,19.32066251,-99999.0,'11111222,11111222,99999999' 
TABS,ioos:station:wmo:42044:1,2014-11-03T21:00:00Z,26.1914,-97.0507,2.0,266.688258,24.41075583,-99999.0,'11111222,11111222,99999999' 
TABS,ioos:station:wmo:42044:1,2014-11-03T21:30:00Z,26.1914,-97.0507,2.0,266.3816661,22.34453177,-99999.0,'11111222,11111222,99999999' 
TABS,ioos:station:wmo:42044:1,2014-11-03T22:00:00Z,26.1914,-97.0507,2.0,261.0653165,24.08218636,-99999.0,'11111222,11111222,99999999' 
TABS,ioos:station:wmo:42044:1,2014-11-03T22:30:00Z,26.1914,-97.0507,2.0,271.1818368,25.7054644,-99999.0,'11111222,11111222,99999999' 
TABS,ioos:station:wmo:42044:1,2014-11-03T23:00:00Z,26.1914,-97.0507,2.0,263.7726066,26.82828731,-99999.0,'11111222,11111222,99999999' 
TABS,ioos:station:wmo:42044:1,2014-11-03T23:30:00Z,26.1914,-97.0507,2.0,275.5496428,25.43922169,-99999.0,'11111222,11111222,99999999' 
TABS,ioos:station:wmo:42044:1,2014-11-04T00:00:00Z,26.1914,-97.0507,2.0,266.8120729,24.8183964,-99999.0,'11111222,11111222,99999999' 
TABS,ioos:station:wmo:42044:1,2014-11-04T00:30:00Z,26.1914,-97.0507,2.0,262.444033,22.28346921,-99999.0,'11111222,11111222,99999999' 
TABS,ioos:station:wmo:42044:1,2014-11-04T01:00:00Z,26.1914,-97.0507,2.0,259.9347281,23.9180873,-99999.0,'11111222,11111222,99999999' 
TABS,ioos:station:wmo:42044:1,2014-11-04T01:30:00Z,26.1914,-97.0507,2.0,258.8095847,25.300998,-99999.0,'11111222,11111222,99999999' 
TABS,ioos:station:wmo:42044:1,2014-11-04T02:00:00Z,26.1914,-97.0507,2.0,263.6536697,22.07526217,-99999.0,'11111222,11111222,99999999' 
TABS,ioos:station:wmo:42044:1,2014-11-04T02:30:00Z,26.1914,-97.0507,2.0,259.2229826,24.44105153,-99999.0,'11111222,11111222,99999999' 
TABS,ioos:station:wmo:42044:1,2014-11-04T03:00:00Z,26.1914,-97.0507,2.0,255.6648998,25.60725874,-99999.0,'11111222,11111222,99999999' 
TABS,ioos:station:wmo:42044:1,2014-11-04T03:30:00Z,26.1914,-97.0507,2.0,266.8531287,20.95158467,-99999.0,'11111222,11111222,99999999' 
TABS,ioos:station:wmo:42044:1,2014-11-04T04:00:00Z,26.1914,-97.0507,2.0,262.6567146,23.15993307,-99999.0,'11111222,11111222,99999999' 
TABS,ioos:station:wmo:42044:1,2014-11-04T04:30:00Z,26.1914,-97.0507,2.0,265.5187879,23.55198505,-99999.0,'11111222,11111222,99999999' 
TABS,ioos:station:wmo:42044:1,2014-11-04T05:00:00Z,26.1914,-97.0507,2.0,274.7975393,24.1546124,-99999.0,'11111222,11111222,99999999' 
TABS,ioos:station:wmo:42044:1,2014-11-04T05:30:00Z,26.1914,-97.0507,2.0,255.5980267,23.96300691,-99999.0,'11111222,11111222,99999999' 
TABS,ioos:station:wmo:42044:1,2014-11-04T06:00:00Z,26.1914,-97.0507,2.0,264.0695197,25.45622321,-99999.0,'11111222,11111222,99999999' 
TABS,ioos:station:wmo:42044:1,2014-11-04T06:30:00Z,26.1914,-97.0507,2.0,255.6611175,26.20633893,-99999.0,'11111222,11111222,99999999' 
TABS,ioos:station:wmo:42044:1,2014-11-04T07:00:00Z,26.1914,-97.0507,2.0,272.9264237,24.29166935,-99999.0,'11111222,11111222,99999999' 
TABS,ioos:station:wmo:42044:1,2014-11-04T07:30:00Z,26.1914,-97.0507,2.0,275.5316118,25.10690144,-99999.0,'11111222,11111222,99999999' 
TABS,ioos:station:wmo:42044:1,2014-11-04T08:00:00Z,26.1914,-97.0507,2.0,267.6909052,24.07954526,-99999.0,'11111222,11111222,99999999' 
TABS,ioos:station:wmo:42044:1,2014-11-04T08:30:00Z,26.1914,-97.0507,2.0,276.9069567,22.12051536,-99999.0,'11111222,11111222,99999999' 
TABS,ioos:station:wmo:42044:1,2014-11-04T09:00:00Z,26.1914,-97.0507,2.0,266.3731977,22.13431951,-99999.0,'11111222,11111222,99999999' 
TABS,ioos:station:wmo:42044:1,2014-11-04T09:30:00Z,26.1914,-97.0507,2.0,269.4061193,23.17124295,-99999.0,'11111222,11111222,99999999' 
TABS,ioos:station:wmo:42044:1,2014-11-04T10:00:00Z,26.1914,-97.0507,2.0,261.6927942,22.01092456,-99999.0,'11111222,11111222,99999999' 
TABS,ioos:station:wmo:42044:1,2014-11-04T10:30:00Z,26.1914,-97.0507,2.0,280.776054,24.81761471,-99999.0,'11111222,11111222,99999999' 
TABS,ioos:station:wmo:42044:1,2014-11-04T11:00:00Z,26.1914,-97.0507,2.0,277.344803,25.267301,-99999.0,'11111222,11111222,99999999' 
TABS,ioos:station:wmo:42044:1,2014-11-04T11:30:00Z,26.1914,-97.0507,2.0,254.0971041,25.69330068,-99999.0,'11111222,11111222,99999999' 
TABS,ioos:station:wmo:42044:1,2014-11-04T12:00:00Z,26.1914,-97.0507,2.0,263.0332015,23.74530059,-99999.0,'11111222,11111222,99999999' 
TABS,ioos:station:wmo:42044:1,2014-11-04T12:30:00Z,26.1914,-97.0507,2.0,267.6107449,24.71147507,-99999.0,'11111222,11111222,99999999' 
TABS,ioos:station:wmo:42044:1,2014-11-04T13:00:00Z,26.1914,-97.0507,2.0,268.2349312,23.38108851,-99999.0,'11111222,11111222,99999999' 
TABS,ioos:station:wmo:42044:1,2014-11-04T13:30:00Z,26.1914,-97.0507,2.0,256.7803386,20.07186339,-99999.0,'11111222,11111222,99999999' 
TABS,ioos:station:wmo:42044:1,2014-11-04T14:00:00Z,26.1914,-97.0507,2.0,264.44826,19.33066217,-99999.0,'11111222,11111222,99999999' 
TABS,ioos:station:wmo:42044:1,2014-11-04T14:30:00Z,26.1914,-97.0507,2.0,267.2551048,16.49892421,-99999.0,'11111222,11111222,99999999' 
TABS,ioos:station:wmo:42044:1,2014-11-04T15:00:00Z,26.1914,-97.0507,2.0,268.9539229,18.08301136,-99999.0,'11111222,11111222,99999999' 
TABS,ioos:station:wmo:42044:1,2014-11-04T15:30:00Z,26.1914,-97.0507,2.0,269.2151861,18.26171131,-99999.0,'11111222,11111222,99999999' 
TABS,ioos:station:wmo:42044:1,2014-11-04T16:00:00Z,26.1914,-97.0507,2.0,262.261663,27.48022744,-99999.0,'11111222,11111222,99999999' 
TABS,ioos:station:wmo:42044:1,2014-11-04T16:30:00Z,26.1914,-97.0507,2.0,258.5335175,16.55030211,-99999.0,'11111222,11111222,99999999' 